Regional Weather Roundup
Issued by NWS

Home | Current Version | Previous Version | Graphics & Text | Print | Product List | Glossary On
Versions: 1 2 3 4 5 6 7 8 9 10 11 12 13 14 15 16 17 18 19 20 21 22 23 24 25 26 27 28 29 30 31 32 33 34 35 36 37 38 39 40 41 42 43 44 45 46 47 48 49 50
036
ASUS45 KTFX 210910
RWRMT
MONTANA REGIONAL WEATHER ROUNDUP
NATIONAL WEATHER SERVICE GREAT FALLS MT
300 AM MDT MON AUG 21 2017

NOTE: "FAIR" INDICATES FEW OR NO CLOUDS BELOW 12000 FEET WITH NO
SIGNIFICANT WEATHER AND/OR OBSTRUCTIONS TO VISIBILITY.

MTZ001>007-043-211000-
WEST OF THE DIVIDE

CITY           SKY/WX    TMP DP  RH WIND       PRES   REMARKS
KALISPELL      CLEAR     47  41  80 CALM      30.12R
MISSOULA       CLEAR     55  38  52 CALM      30.14R
BUTTE          PTCLDY    52  31  44 SE3       30.21S
MULLAN PASS    CLEAR     53  32  44 NW5       30.25S
ANACONDA         N/A     54  32  43 CALM      30.19R
DEER LODGE       N/A     54  36  50 CALM      30.19S
EUREKA           N/A     52  36  54 MISG      30.13R
HAMILTON         N/A     52  39  62 SE3       30.15R
LIBBY            N/A     50  39  66 CALM      30.11S
PLAINS           N/A     49  38  65 CALM      30.12R
RONAN            N/A     47  41  80 SW3       30.16R
$$

MTZ008-052>055-211000-
SOUTHWEST MONTANA

CITY           SKY/WX    TMP DP  RH WIND       PRES   REMARKS
BOZEMAN        CLOUDY    49  38  65 S8        30.15S
DILLON         PTCLDY    57  29  34 S7        30.17R
W YELLOWSTONE  CLOUDY    48  36  61 CALM      30.24R
ENNIS          MOCLDY    50  32  50 NE6       30.23R
THREE FORKS      N/A     49  32  52 CALM      30.12S
TWIN BRIDGES     N/A     57  34  42 CALM      30.13R
$$

MTZ009-010-012-014-046-048-049-054-211000-
EAST SLOPES AND CENTRAL MONTANA

CITY           SKY/WX    TMP DP  RH WIND       PRES   REMARKS
CUT BANK       CLEAR     53  36  52 NW14      30.11R
GREAT FALLS    CLEAR     51  30  44 SW7       30.11S
MALMSTROM AFB  CLEAR     55  30  38 S5        30.10R
HELENA         CLEAR     57  34  41 NW6       30.12R
AUGUSTA          N/A     55  34  44 NW9       30.14R
BOWMANS CRNR     N/A     56  31  38 W5        30.12S
CHOTEAU          N/A     52  36  54 CALM      30.13S
FAIRFIELD        N/A     52  35  51 CALM      30.11S
POWER            N/A     52  32  47 W5        30.10S
RAYNESFORD       N/A     50  31  47 CALM      30.13R
ULM              N/A     55  29  37 E3        30.11R
$$

MTZ011-013-016-021-045-047-050-051-211000-
NORTH CENTRAL MONTANA

CITY           SKY/WX    TMP DP  RH WIND       PRES   REMARKS
HAVRE          CLOUDY    61  34  36 CALM      30.03S
LEWISTOWN      CLOUDY    50  36  58 E7        30.12R
N BAR RANCH      N/A     54  30  40 W5        30.16R
CHINOOK          N/A     61  41  48 CALM      30.03S
DENTON           N/A     55  30  38 S9        30.06S
GEYSER           N/A     53  30  42 SW15      30.12R
GRASS RANGE      N/A     59  28  31 SW5       30.08R
JUDITH GAP       N/A     54  29  38 N6        30.14R
WINIFRED       MOCLDY    60  28  30 SE7       30.09R
$$

MTZ017>020-022>027-061-062-211000-
NORTHEAST MONTANA

CITY           SKY/WX    TMP DP  RH WIND       PRES   REMARKS
GLASGOW        CLOUDY    63  34  33 NW5       29.99R
JORDAN           N/A     55  31  39 NW5       30.02R
SIDNEY         PTCLDY    53  47  79 CALM      29.95F
WOLF POINT     PTCLDY    63  35  35 W8        29.96S
MALTA          CLOUDY    63  36  36 CALM      30.01S
PLENTYWOOD       N/A     63  43  48 CALM      29.93S
POPLAR           N/A     54  41  62 W6        29.95F
SCOBEY           N/A     61  35  37 S1        29.97R
$$

MTZ028>42-056>058-211000-
SOUTHCENTRAL AND SOUTHEAST MONTANA

CITY           SKY/WX    TMP DP  RH WIND       PRES   REMARKS
BAKER          CLOUDY    56  47  71 SE3       30.00R
BILLINGS       MOCLDY    63  32  31 NW8       30.08R
LIVINGSTON     PTCLDY    51  32  48 W5        30.15R
MILES CITY     CLOUDY    65  42  43 N8        29.99R
BIG TIMBER     MOCLDY    54  28  37 CALM      30.16R
EKALAKA          N/A     60  47  62 SE8       29.98R
HARLOWTON        N/A     54  29  37 MISG      30.13R
LAUREL           N/A     62  32  32 W5        30.07F
$$

REGIONAL REPORTS...DAKOTAS

CITY           SKY/WX    TMP DP  RH WIND       PRES   REMARKS
WILLISTON      PTCLDY    60  46  59 S3        29.95F
MINOT          CLOUDY    60  51  72 VRB6      29.97R
DICKINSON      CLOUDY    59  46  62 SE12      29.98F
BEACH            N/A     54  48  82 SE9       30.01S
CROSBY           N/A     63  45  51 S10       29.93F
TIOGA            N/A     57  45  62 SW6G15    29.98R
WATFORD CITY     N/A     54  45  71 CALM      29.96R
BISMARCK       CLOUDY    58  48  69 NW23G32   30.05R
GRAND FORKS    CLOUDY    53  51  93 S5        29.99S
FARGO          MOCLDY    60  55  83 S3        30.00F
BUFFALO SD       N/A     60  51  72 S15       29.91R
RAPID CITY     MOCLDY    58  52  80 NE9       29.98S
$$

REGIONAL REPORTS...WYOMING/IDAHO/WASHINGTON

CITY           SKY/WX    TMP DP  RH WIND       PRES   REMARKS
GILLETTE       CLEAR     59  44  57 NW5       30.05S
SHERIDAN       CLEAR     53  42  66 NW5       30.08R
BUFFALO WY     CLOUDY    59  35  40 W9        30.12S
CODY           PTCLDY    57  35  43 S5        30.16R
YELLOWSTONE LA   N/A     41  36  82 CALM      30.33R
IDAHO FALLS    CLOUDY    56  39  53 SW10      30.11S
SALMON         PTCLDY    56  36  47 S5        30.13R
BOISE          PTCLDY    63  37  38 S6        30.03R
SPOKANE        PTCLDY    61  38  42 S3        30.09F
$$

REGIONAL REPORTS...ALBERTA

CITY           SKY/WX    TMP DP  RH WIND       PRES   REMARKS
EDMONTON       CLEAR     46  45  93 W7        30.07S
CALGARY        PTCLDY    48  41  76 CALM      30.16R
LETHBRIDGE     CLOUDY    57  41  54 N8        30.12R
MEDICINE HAT   CLOUDY    63  39  42 NE9       30.09R
$$

REGIONAL REPORTS...SASKATCHEWAN

CITY           SKY/WX    TMP DP  RH WIND       PRES   REMARKS
SWIFT CURRENT  MOCLDY    50  37  62 NW7       30.06R
REGINA         MOCLDY    59  41  51 N8        29.96R
SASKATOON      PTCLDY    48  43  81 W6        30.00S
$$




USA.gov is the U.S. government's official web portal to all federal, state and local government web resources and services.